This is the latest recevied weather packets stored in our database for station/object W9KHP-1. If no packets are shown the sender has not sent any weather packets the latest 10 day(s).
| Time | Temp. | Humidity | Pressure | Rain* | Wind** | Luminosity | Snow |
|---|---|---|---|---|---|---|---|
| 1777590673 | 16.11° C | 48% | 1017.4 hPa | 0 mm | - | 37 W/m² | - |
| 1777590369 | 16.11° C | 46% | 1017.4 hPa | 0 mm | - | 38 W/m² | - |
| 1777590067 | 16.11° C | 43% | 1017.5 hPa | 0 mm | - | 38 W/m² | - |
| 1777589763 | 16.11° C | 41% | 1017.5 hPa | 0 mm | - | 38 W/m² | - |
| 1777589462 | 16.11° C | 45% | 1017.5 hPa | 0 mm | - | 39 W/m² | - |
| 1777589157 | 16.11° C | 45% | 1017.6 hPa | 0 mm | - | 40 W/m² | - |
| 1777588854 | 16.67° C | 41% | 1017.5 hPa | 0 mm | - | 43 W/m² | - |
| 1777588550 | 16.67° C | 44% | 1017.5 hPa | 0 mm | - | 43 W/m² | - |
| 1777588246 | 16.67° C | 42% | 1017.6 hPa | 0 mm | - | 44 W/m² | - |
| 1777587940 | 16.67° C | 43% | 1017.6 hPa | 0 mm | - | 45 W/m² | - |
| 1777587637 | 16.67° C | 41% | 1017.6 hPa | 0 mm | - | 47 W/m² | - |
| 1777587332 | 17.22° C | 43% | 1017.6 hPa | 0 mm | - | 58 W/m² | - |
| 1777587027 | 17.22° C | 44% | 1017.6 hPa | 0 mm | - | 263 W/m² | - |
| 1777586723 | 17.78° C | 43% | 1017.5 hPa | 0 mm | - | 277 W/m² | - |
| 1777586420 | 17.78° C | 42% | 1017.5 hPa | 0 mm | - | 292 W/m² | - |
| 1777586119 | 18.33° C | 43% | 1017.6 hPa | 0 mm | - | 303 W/m² | - |
| 1777585818 | 18.33° C | 41% | 1017.5 hPa | 0 mm | - | 312 W/m² | - |
| 1777585512 | 18.33° C | 40% | 1017.5 hPa | 0 mm | - | 344 W/m² | - |
| 1777585208 | 17.22° C | 40% | 1017.7 hPa | 0 mm | - | 349 W/m² | - |
| 1777584903 | 17.22° C | 45% | 1017.7 hPa | 0 mm | - | 361 W/m² | - |
| 1777584601 | 17.78° C | 41% | 1017.6 hPa | 0 mm | - | 318 W/m² | - |
| 1777584298 | 18.33° C | 39% | 1017.6 hPa | 0 mm | - | 391 W/m² | - |
| 1777583992 | 17.78° C | 42% | 1017.5 hPa | 0 mm | - | 404 W/m² | - |
| 1777583687 | 17.78° C | 41% | 1017.7 hPa | 0 mm | - | 419 W/m² | - |
| 1777583387 | 18.33° C | 43% | 1017.8 hPa | 0 mm | - | 433 W/m² | - |
* Rain latest hour (hover to see other rain measurements)
** Current wind speed in m/s (hover to see current wind gust speed)